York, PA

11:46 PM EST on January 23, 2018 (GMT -0500)
York

Weather History for KTHV - April, 2014

Change the Weather History Date:

Sunday, April 13, 2014

  Actual Average Record
Temperature  
Mean Temperature 68 °F -  
Max Temperature 82 °F 0 °F 82 °F (2014)
Min Temperature 54 °F - 23 °F (2009)
Cooling Degree Days 3    
Growing Degree Days 18 (Base 50)    
Moisture  
Dew Point 52 °F    
Average Humidity 59    
Maximum Humidity 86    
Minimum Humidity 34    
Precipitation  
Precipitation 0.00 in - - ()
Sea Level Pressure  
Sea Level Pressure 30.05 in    
Wind  
Wind Speed 7 mph (South)    
Max Wind Speed 15 mph    
Max Gust Speed 24 mph    
Visibility 9 miles    
Events      
Averages and records for this station are not official NWS values.
T = Trace of Precipitation, MM = Missing Value Source: NWS Daily Summary

Daily Weather History Graph

Daily Weather History Graph

Search for Another Location

Airport or City:

Trip Planner

Search our weather history database for the weather conditions in past years. The results will help you decide how hot, cold, wet, or windy it might be!

Date:

Astronomy

Apr. 13, 2014 Rise Set
Actual Time 6:32 AM EDT 7:43 PM EDT
Civil Twilight 6:04 AM EDT 8:11 PM EDT
Nautical Twilight 5:31 AM EDT 8:45 PM EDT
Astronomical Twilight 4:56 AM EDT 9:20 PM EDT
Moon 6:19 PM EDT (4/13) 5:30 AM EDT (4/13)
Length of Visible Light 14h 06m
Length of Day
13h 11m
Waxing Gibbous, 97% of the Moon is Illuminated
Apr 13
Waxing Gibbous
Apr 15
Full
Apr 22
Last Quarter
Apr 29
New
May 6
First Quarter

Hourly Weather History & Observations

Time (EDT) Temp. Heat Index Dew Point Humidity Pressure Visibility Wind Dir Wind Speed Gust Speed Precip Events Conditions
12:53 AM 60.1 °F - 48.9 °F 67% 30.12 in 10.0 mi SSE 8.1 mph 18.4 mph N/A   Clear
1:53 AM 59.0 °F - 48.0 °F 67% 30.12 in 10.0 mi South 8.1 mph - N/A   Clear
2:53 AM 57.9 °F - 48.0 °F 70% 30.12 in 10.0 mi SSE 5.8 mph - N/A   Clear
3:53 AM 57.0 °F - 48.9 °F 74% 30.11 in 10.0 mi Variable 4.6 mph - N/A   Clear
4:53 AM 55.9 °F - 48.9 °F 77% 30.11 in 7.0 mi Calm Calm - N/A   Clear
5:53 AM 55.9 °F - 50.0 °F 80% 30.11 in 8.0 mi SSE 4.6 mph - N/A   Mostly Cloudy
6:53 AM 54.0 °F - 50.0 °F 86% 30.12 in 5.0 mi East 3.5 mph - N/A   Mostly Cloudy
7:53 AM 55.9 °F - 51.1 °F 84% 30.13 in 5.0 mi NNE 3.5 mph - N/A   Haze
8:53 AM 60.1 °F - 52.0 °F 75% 30.13 in 10.0 mi Variable 4.6 mph - N/A   Mostly Cloudy
9:53 AM 64.0 °F - 53.1 °F 67% 30.11 in 10.0 mi South 4.6 mph - N/A   Clear
10:53 AM 68.0 °F - 53.1 °F 59% 30.10 in 10.0 mi SSW 8.1 mph - N/A   Clear
11:53 AM 73.0 °F - 54.0 °F 51% 30.08 in 10.0 mi SSW 9.2 mph - N/A   Clear
12:53 PM 78.1 °F - 52.0 °F 40% 30.03 in 10.0 mi SSW 12.7 mph 17.3 mph N/A   Clear
1:53 PM 81.0 °F 80.4 °F 53.1 °F 38% 30.01 in 10.0 mi South 11.5 mph - N/A   Clear
2:53 PM 82.0 °F - 52.0 °F 35% 29.97 in 10.0 mi South 10.4 mph 17.3 mph N/A   Clear
3:53 PM 82.0 °F - 52.0 °F 35% 29.95 in 10.0 mi South 9.2 mph 21.9 mph N/A   Clear
4:53 PM 82.0 °F - 51.1 °F 34% 29.95 in 10.0 mi SSW 15.0 mph 24.2 mph N/A   Clear
5:53 PM 82.0 °F - 52.0 °F 35% 29.95 in 10.0 mi South 10.4 mph - N/A   Clear
6:53 PM 80.1 °F - 51.1 °F 36% 29.96 in 10.0 mi South 6.9 mph - N/A   Clear
8:53 PM 72.0 °F - 54.0 °F 53% 29.97 in 10.0 mi Variable 6.9 mph - N/A   Clear
9:53 PM 69.1 °F - 54.0 °F 58% 29.97 in 10.0 mi South 4.6 mph - N/A   Clear
10:53 PM 68.0 °F - 55.0 °F 63% 29.97 in 10.0 mi Variable 4.6 mph - N/A   Clear
11:53 PM 66.0 °F - 54.0 °F 65% 29.97 in 10.0 mi South 4.6 mph - N/A   Clear